Location: Unspecified
(29.9680°N, 0.0000°E)
Time: 23:49:11
(UTC+00:00)

Courier 1B Rocket - All Passes

Search period start: 18 June 2019 00:00
Search period end: 28 June 2019 00:00
Orbit: 920 x 1202 km, 28.2° (Epoch: 17 June)

Date Brightness Start Highest point End Pass type
(mag) Time Alt. Az. Time Alt. Az. Time Alt. Az.
18 Jun - 04:04:17 10° SSW 04:09:56 28° SSE 04:15:18 10° E visible
18 Jun - 05:56:36 10° WSW 06:03:01 60° SSE 06:09:10 10° E daylight
18 Jun - 07:50:01 10° W 07:56:20 78° S 08:02:34 10° E daylight
18 Jun - 09:43:31 10° W 09:49:36 56° SSW 09:55:47 10° ESE daylight
18 Jun - 11:37:39 10° WSW 11:42:35 24° SSW 11:47:41 10° SSE daylight
19 Jun - 03:04:03 10° SSW 03:09:00 21° SSE 03:13:45 10° ESE visible
19 Jun - 04:55:37 10° SW 05:02:04 49° SSE 05:08:09 10° E daylight
19 Jun - 06:48:53 10° W 06:55:21 76° S 07:01:35 10° E daylight
19 Jun - 08:42:27 10° W 08:48:41 66° S 08:54:52 10° ESE daylight
19 Jun - 10:36:15 10° W 10:41:44 33° SSW 10:47:22 10° SE daylight
19 Jun - 12:33:42 10° SW 12:34:36 10° SSW 12:35:29 10° SSW daylight
20 Jun - 02:04:25 10° S 02:08:03 15° SSE 02:11:35 10° ESE visible
20 Jun - 03:54:46 10° SW 04:01:07 39° SSE 04:07:05 10° E visible
20 Jun - 05:47:45 10° WSW 05:54:21 70° S 06:00:37 10° E daylight
20 Jun - 07:41:21 10° W 07:47:43 74° S 07:53:56 10° ESE daylight
20 Jun - 09:35:01 10° W 09:40:53 43° SSW 09:46:47 10° SE daylight
20 Jun - 11:30:04 10° WSW 11:33:44 16° SSW 11:37:29 10° S daylight
21 Jun - 02:54:05 10° SW 03:00:09 30° SSE 03:05:51 10° E visible
21 Jun - 04:46:36 10° WSW 04:53:21 62° SSE 04:59:40 10° E daylight
21 Jun - 06:40:11 10° W 06:46:43 78° S 06:52:59 10° E daylight
21 Jun - 08:33:51 10° W 08:40:00 55° SSW 08:46:04 10° ESE daylight
21 Jun - 10:28:09 10° WSW 10:32:56 23° SSW 10:37:46 10° SSE daylight
22 Jun - 01:53:43 10° SSW 01:59:09 23° SSE 02:04:20 10° ESE visible
22 Jun - 03:45:31 10° WSW 03:52:19 51° SSE 03:58:40 10° E visible
22 Jun - 05:38:57 10° W 05:45:42 77° S 05:52:03 10° E daylight
22 Jun - 07:32:41 10° W 07:39:05 66° S 07:45:15 10° ESE daylight
22 Jun - 09:26:38 10° W 09:32:06 32° SSW 09:37:34 10° SE daylight
23 Jun - 00:53:54 10° S 00:58:09 16° SSE 01:02:16 10° ESE visible
23 Jun - 02:44:34 10° SW 02:51:17 41° SSE 02:57:36 10° E visible
23 Jun - 04:37:42 10° WSW 04:44:39 72° S 04:51:07 10° E daylight
23 Jun - 06:31:28 10° W 06:38:05 74° S 06:44:23 10° ESE daylight
23 Jun - 08:25:18 10° W 08:31:16 43° SSW 08:37:06 10° SE daylight
23 Jun - 10:20:37 10° WSW 10:24:04 15° SSW 10:27:32 10° S daylight
23 Jun - 23:55:52 10° SSE 23:57:07 10° SSE 23:58:21 10° SE night (unlit)
24 Jun - 01:43:48 10° SW 01:50:16 32° SSE 01:56:20 10° E visible
24 Jun - 03:36:28 10° WSW 03:43:35 63° SSE 03:50:10 10° E visible
24 Jun - 05:30:12 10° W 05:37:03 78° S 05:43:28 10° E daylight
24 Jun - 07:24:02 10° W 07:30:23 54° SSW 07:36:28 10° ESE daylight
24 Jun - 09:18:31 10° WSW 09:23:17 23° SSW 09:28:00 10° SSE daylight
25 Jun - 00:43:22 10° SSW 00:49:13 24° SSE 00:54:48 10° ESE visible
25 Jun - 02:35:19 10° WSW 02:42:29 53° SSE 02:49:08 10° E visible
25 Jun - 04:28:53 10° W 04:35:58 78° S 04:42:33 10° E visible
25 Jun - 06:22:45 10° W 06:29:26 66° SSW 06:35:43 10° ESE daylight
25 Jun - 08:16:53 10° W 08:22:29 32° SSW 08:27:55 10° SE daylight
25 Jun - 23:43:26 10° S 23:48:09 17° SSE 23:52:45 10° ESE night (unlit)
26 Jun - 01:34:18 10° SW 01:41:22 43° SSE 01:48:02 10° E visible
26 Jun - 03:27:33 10° WSW 03:34:51 73° S 03:41:36 10° E visible
26 Jun - 05:21:26 10° W 05:28:23 74° S 05:34:52 10° ESE daylight
26 Jun - 07:15:25 10° W 07:21:38 43° SSW 07:27:33 10° SE daylight
26 Jun - 09:10:58 10° WSW 09:14:24 15° SSW 09:17:47 10° S daylight
26 Jun - 22:44:50 10° SSE 22:47:06 11° SSE 22:49:21 10° SE night (unlit)
27 Jun - 00:33:31 10° SW 00:40:17 34° SSE 00:46:43 10° E visible
27 Jun - 02:26:15 10° WSW 02:33:41 65° SSE 02:40:36 10° E visible
27 Jun - 04:20:05 10° W 04:27:17 78° S 04:33:58 10° E visible
27 Jun - 06:14:03 10° W 06:20:42 55° SSW 06:26:57 10° ESE daylight
27 Jun - 08:08:42 10° WSW 08:13:37 23° SSW 08:18:23 10° SSE daylight
27 Jun - 23:33:02 10° SSW 23:39:10 26° SSE 23:45:07 10° E night (unlit)
